sat.trackr.live / text

‹ back to catalog

INMARSAT 3-F1

NORAD 23839 · 1996-020A

PAYLOAD ACTIVE UNKNOWN

§ Identity

Operator
Country
IM
Launch date
1996-04-03
Launch site
AFETR
Launch vehicle
Mass (kg)
RCS (m²)
1.18

Purposes: comms

External: N2YO · Heavens-Above · Gunter

§ Orbital elements

Epoch: 2026-09-19T15:48:14.991840Z

Period
1,439.95 min
Inclination
10.7950°
Eccentricity
0.0007081
Mean motion
1.00003580 rev/d
Perigee alt
35,832.0 km
Apogee alt
35,891.9 km
Semi-major
42,240.1 km
B*
0.0000e+0
RAAN
45.7345°
Arg perigee
155.0923°
Mean anomaly
203.1654°
Rev number
11,119

§ Raw data

INMARSAT 3-F11 23839U 96020A   26262.65850685 -.00000102  00000+0  00000+0 0  99952 23839  10.7950  45.7345 0007081 155.0923 203.1654  1.00003580111199

JSON: /api/v1/satellites/23839 · /tle

For live sub-satellite position, see the globe view (requires WebGL).

§ Visibility from observer

Set your observer location to see the next 7 days of passes ≥ 10°. The values pass through the URL so the page stays shareable.

No JS? Fill the form by hand. The geolocation button needs JavaScript.